Theta_e
327 328 329 329 330 330 329 329 328 325 323 324 326 327 326 325 324 323 323 323 323 323 321 322 321 322 322 321 320 319 318 319 320 320 319 319 318 318 318 317 315 315 317 318 319 319 317 317 317 318 320 319 318 319 317 317 318 318 317 315 315 317 317 315 311 309 309 310 309 306 307 310 306 307 307 309 310 310 308 310 311 311 309 311 311
329 329 331 330 329 329 329 330 327 327 325 324 326 327 324 323 325 323 323 324 324 321 320 322 322 321 320 321 322 321 319 319 320 319 317 318 319 319 319 317 316 315 316 315 317 317 318 316 315 317 318 316 318 315 315 315 314 314 313 314 314 315 317 314 312 311 309 309 308 308 308 309 307 307 309 309 309 310 308 309 309 308 308 309 309
330 331 330 330 330 330 330 328 329 328 328 327 327 327 325 323 325 325 323 324 323 322 321 322 320 321 320 320 320 321 320 321 322 321 319 318 316 318 318 317 316 317 316 315 314 316 316 316 315 317 317 317 317 317 316 315 314 313 313 313 313 313 313 314 314 311 310 308 311 308 309 309 309 307 308 309 309 308 307 309 308 308 308 310 309
328 329 329 329 329 329 328 329 328 329 329 328 328 328 328 327 322 323 324 323 322 323 323 321 321 320 320 320 320 321 322 322 321 321 320 320 319 318 318 318 317 317 317 315 315 316 317 316 317 317 317 316 315 315 316 316 315 313 313 313 313 312 314 314 314 314 312 309 310 309 309 310 309 309 308 309 309 308 309 309 309 309 309 309 309
327 326 327 327 327 327 327 328 327 328 328 326 327 328 329 329 326 321 324 325 323 324 323 322 321 320 321 319 319 320 320 320 320 320 321 321 321 321 320 320 320 319 318 317 317 317 317 317 317 317 317 317 316 315 315 315 313 313 312 312 311 312 313 313 313 314 313 312 310 310 311 309 309 310 309 308 309 309 310 310 309 309 311 312 311
326 326 326 326 326 326 326 327 326 327 326 327 327 327 328 328 329 326 324 324 325 325 324 323 322 321 321 320 320 320 320 320 320 320 320 321 322 322 322 322 321 321 320 320 318 319 319 318 318 317 317 317 317 316 316 315 313 314 312 310 310 312 313 313 313 313 312 311 313 311 312 310 311 311 310 309 309 309 309 310 311 311 310 311 310
326 326 326 326 325 325 326 326 326 326 326 327 327 326 326 328 328 326 326 325 325 325 325 324 324 324 324 324 323 323 322 322 322 323 322 322 322 322 323 322 322 322 322 321 321 321 321 320 320 319 318 318 318 317 316 316 314 314 314 312 310 312 312 313 312 312 312 312 312 312 311 312 311 310 310 310 310 309 309 308 308 309 310 309 308
326 326 326 325 325 326 327 327 328 328 328 328 327 327 327 328 328 327 326 325 325 324 325 325 326 325 325 325 325 325 325 324 324 324 324 324 325 324 324 325 324 324 325 323 323 322 322 322 321 321 320 319 319 319 318 317 317 315 314 312 312 312 312 311 312 311 312 312 311 310 311 311 311 312 311 311 310 309 308 307 306 306 307 308 309
325 325 325 325 325 325 326 327 328 328 327 327 327 326 327 328 329 328 329 328 326 325 325 325 325 324 324 325 325 326 326 326 325 326 325 325 326 325 325 324 325 325 325 325 325 324 324 324 323 322 322 320 312 314 314 314 319 316 315 314 312 311 311 311 311 311 312 312 312 313 311 310 311 311 309 308 307 306 308 309 307 307 306 306 306
323 323 323 324 324 325 325 326 326 327 327 326 326 326 326 327 329 328 328 327 327 326 326 326 325 325 324 325 325 326 327 328 322 310 313 325 326 324 325 324 323 324 325 325 326 326 325 325 325 319 313 310 307 304 303 304 309 316 318 315 312 311 311 311 310 311 312 311 311 310 309 310 309 310 309 309 309 310 308 308 305 305 305 304 305
323 323 323 323 324 324 324 324 325 325 325 325 325 325 326 327 327 327 327 327 327 326 326 325 325 325 325 325 326 326 327 326 303 303 303 306 320 325 324 323 323 323 324 325 325 326 326 325 326 319 315 310 311 299 300 299 301 301 298 299 304 317 312 309 310 311 310 311 311 309 307 307 308 310 309 308 309 308 306 306 305 304 302 300 299
317 319 321 323 323 323 323 323 323 323 324 324 325 326 326 326 326 327 327 328 327 326 325 325 326 326 326 326 326 326 327 310 299 299 298 299 307 323 324 324 324 324 325 325 325 325 325 326 325 325 322 321 319 314 305 297 297 296 294 293 292 290 293 308 312 311 310 309 308 307 307 307 307 308 308 308 306 305 306 305 304 302 301 300 300
312 313 313 315 318 322 323 324 323 324 324 324 326 326 325 324 324 325 325 326 325 323 324 324 325 325 325 324 324 324 326 300 298 296 296 296 296 308 322 324 324 326 326 326 325 325 325 325 325 324 323 315 316 320 317 309 295 293 293 293 293 292 290 290 293 311 311 308 307 306 307 308 306 307 309 307 306 304 303 302 302 301 301 299 299
312 312 312 312 312 313 315 319 322 324 324 324 324 324 325 325 325 324 323 322 322 323 324 324 324 324 324 323 322 323 324 300 296 295 296 295 294 300 323 323 325 326 325 325 325 324 324 324 323 322 323 320 321 320 320 314 308 304 304 306 305 300 293 291 292 292 300 308 308 306 309 308 306 308 308 306 303 302 301 300 301 300 300 299 302
311 312 312 312 312 312 312 313 314 318 321 322 323 323 324 325 325 324 323 321 320 321 321 322 322 322 322 322 322 321 323 296 295 295 294 294 292 297 321 323 322 319 323 323 322 321 321 321 321 321 321 321 322 319 319 314 310 308 307 307 307 307 309 310 311 311 309 310 309 308 308 308 307 307 307 306 305 304 303 302 301 301 301 302 303
309 310 311 311 312 312 311 311 312 313 316 321 322 321 322 324 324 323 322 321 320 322 322 321 321 320 322 322 321 321 324 292 294 293 294 293 292 314 323 322 319 320 321 322 322 322 322 321 321 320 320 319 306 302 308 314 311 310 308 308 308 308 304 294 291 294 302 305 304 304 305 302 295 303 301 301 301 302 302 302 302 301 301 300 298
307 308 308 309 310 311 312 311 311 312 312 313 317 321 322 323 326 326 324 323 321 321 322 321 321 322 321 321 322 322 324 300 292 292 293 292 299 322 321 318 318 319 319 321 321 321 322 321 322 320 319 318 299 296 298 302 312 310 308 308 308 306 303 299 292 290 290 290 289 289 288 288 289 289 288 288 296 298 298 297 298 300 297 295 297
305 305 306 307 308 309 310 311 311 311 312 311 313 317 320 321 322 325 323 323 323 323 324 322 322 322 321 322 324 323 324 303 291 292 292 292 303 319 317 317 317 318 319 320 319 315 309 300 310 319 316 311 292 294 294 304 312 310 309 308 307 306 304 303 301 298 289 290 290 290 290 290 290 289 290 291 289 292 297 295 298 298 297 297 295
303 304 305 306 307 308 309 310 311 311 311 312 314 315 317 318 319 322 321 323 324 322 320 319 319 321 322 323 310 321 321 303 290 292 291 293 300 321 316 316 317 317 317 316 316 315 311 306 297 305 309 301 291 293 294 303 313 312 310 308 306 306 305 305 304 302 302 301 300 299 297 293 296 298 299 289 291 293 297 298 299 298 296 296 296
304 304 305 305 306 307 308 309 310 310 310 311 313 315 317 318 319 319 320 319 320 319 318 318 316 315 316 316 319 320 319 317 303 290 292 292 293 314 318 314 315 315 315 315 314 313 311 308 300 290 290 290 291 292 294 295 310 311 310 309 307 304 305 305 304 304 304 302 303 303 303 303 303 303 304 301 298 298 300 301 300 299 297 296 297
304 304 305 305 305 305 307 308 309 310 310 311 312 312 314 316 317 317 317 317 317 315 314 314 314 313 314 315 315 319 319 317 307 289 291 291 293 296 318 315 316 315 314 313 313 312 310 308 305 291 289 290 290 290 291 292 297 310 309 308 306 302 300 303 298 291 301 302 301 301 302 302 302 302 301 301 301 301 300 301 301 300 298 296 295
304 303 304 304 304 305 306 307 309 310 310 310 310 311 313 314 316 317 313 314 315 314 314 312 311 310 312 313 315 315 309 305 315 293 291 292 294 292 313 317 316 315 314 313 312 311 308 306 303 293 289 290 290 290 291 292 293 303 298 290 289 291 302 302 303 302 301 301 300 299 299 299 299 300 300 300 299 300 300 300 300 299 299 299 296
302 303 303 303 304 304 305 306 307 308 309 310 310 310 311 312 313 314 314 315 314 314 313 312 311 310 310 311 313 314 313 308 297 307 291 293 292 294 294 309 298 316 314 312 310 308 307 304 297 290 289 289 290 290 291 291 293 295 288 288 289 288 293 301 300 299 299 299 299 298 298 299 299 298 299 298 299 300 298 299 299 298 298 298 298
301 301 302 302 303 303 304 305 306 307 308 309 308 309 309 310 311 311 311 310 309 309 308 311 309 309 309 308 309 311 311 310 298 298 300 290 292 293 295 297 299 313 314 312 310 307 304 302 296 289 289 289 289 289 290 291 293 287 288 287 287 289 299 300 298 300 296 296 297 298 298 298 297 297 297 298 297 297 297 296 296 297 296 296 296
299 299 300 301 302 303 303 304 305 305 306 307 307 306 308 310 309 310 310 309 308 307 306 307 306 306 306 305 306 308 309 307 305 297 293 291 291 291 291 292 292 297 312 311 310 307 295 289 288 288 288 288 288 288 289 288 287 287 287 287 289 300 300 299 299 299 297 296 296 297 297 297 298 297 298 297 296 295 295 296 296 296 296 295 295
297 298 299 300 300 301 302 302 303 304 305 305 306 306 307 308 309 308 308 309 308 308 306 306 306 306 306 305 306 307 309 308 304 301 295 294 292 289 290 290 291 291 295 297 289 288 288 288 287 287 288 291 297 298 296 293 288 288 287 288 300 299 298 299 298 297 296 296 295 295 296 297 297 298 297 295 294 294 294 293 293 293 294 294 293
296 297 297 298 299 300 300 301 301 302 304 304 305 305 306 306 308 307 308 308 308 307 308 307 306 306 306 305 307 307 308 309 307 304 303 302 301 298 298 297 292 293 297 296 293 293 292 293 293 291 291 289 291 291 291 289 291 293 297 299 300 298 299 297 296 296 295 295 295 295 297 297 298 297 297 295 294 294 294 293 292 292 293 293 292
296 296 296 297 297 299 300 293 297 301 302 303 303 303 304 306 305 306 306 307 307 307 308 307 306 307 306 308 307 306 306 308 308 308 308 306 303 303 304 302 304 304 301 300 299 297 296 291 292 296 296 296 296 297 298 298 298 296 298 298 298 296 292 290 291 297 297 296 296 296 295 296 296 295 295 295 294 294 295 293 292 292 292 292 290
294 295 296 296 297 297 298 299 300 300 301 301 302 302 303 305 306 307 311 311 311 311 311 311 309 310 308 306 305 305 305 304 306 300 308 298 302 305 304 305 305 304 299 295 299 298 297 297 296 297 297 294 295 295 297 297 295 297 298 299 298 298 297 297 296 296 296 295 294 294 292 295 295 295 294 293 293 293 294 293 293 292 292 292 289
294 294 295 295 296 296 298 298 299 299 300 300 301 304 290 287 298 307 308 298 293 295 301 307 310 309 306 305 305 305 304 306 294 293 293 294 295 296 297 296 296 299 293 292 296 297 296 296 296 296 295 295 294 294 295 295 294 294 293 290 295 295 293 294 295 295 293 292 293 292 292 293 292 293 292 291 292 292 293 290 292 292 290 290 289
293 293 293 294 294 295 296 297 298 299 300 300 301 300 303 300 287 285 288 290 292 292 290 290 290 292 301 302 299 291 292 291 291 292 291 291 290 290 290 290 290 290 291 295 297 297 296 295 296 295 295 295 294 294 294 293 293 293 293 293 294 292 291 293 293 291 291 292 292 293 293 292 291 291 291 290 291 291 291 291 291 292 291 290 289
292 292 293 293 293 292 295 296 296 296 297 300 301 300 300 300 300 290 287 289 289 289 290 290 290 291 289 293 300 302 291 290 290 290 290 290 290 289 289 289 289 290 290 292 296 296 297 296 295 294 294 294 293 293 294 294 292 293 292 292 292 292 291 292 291 293 292 292 292 291 292 292 291 291 291 290 289 290 291 290 290 290 290 290 289
291 292 292 292 292 292 292 293 294 296 297 297 299 300 299 299 299 300 293 288 287 288 289 289 289 289 290 290 291 295 293 291 290 290 290 289 289 289 289 289 289 288 289 294 297 295 295 295 295 294 295 293 293 294 294 295 293 293 293 293 292 293 293 293 290 293 291 291 292 292 292 292 292 291 290 290 289 289 289 289 290 290 289 288 288
291 291 291 291 291 292 292 293 294 295 296 297 299 299 300 300 301 301 299 296 294 291 289 288 288 289 288 289 291 291 290 289 289 289 289 288 288 288 289 290 288 288 291 294 295 294 295 294 295 296 296 294 294 293 293 293 293 293 292 294 294 294 293 293 293 291 291 292 293 292 292 292 291 290 290 290 289 289 288 288 289 288 288 288 288
291 289 287 288 291 291 292 292 292 293 295 297 298 298 299 299 300 300 300 298 299 298 295 296 290 289 293 290 288 289 289 289 289 288 288 288 288 288 289 292 292 293 295 299 297 296 295 295 295 295 296 294 294 293 293 295 293 293 293 292 293 293 291 290 290 291 291 292 293 293 292 290 291 290 290 289 288 288 288 288 288 288 288 288 288
291 291 291 290 290 290 290 291 291 292 293 295 297 298 298 299 299 300 300 301 300 298 295 295 293 287 287 288 287 288 288 288 288 288 288 287 288 289 293 293 293 293 294 297 297 296 296 297 296 296 296 295 295 293 292 293 294 293 294 293 291 291 290 290 290 291 291 292 292 291 291 291 291 290 290 289 288 288 288 288 288 288 288 288 288
292 292 291 291 291 291 291 291 291 291 290 292 294 297 298 299 298 301 301 301 300 299 298 295 294 291 288 288 288 287 287 287 287 287 287 287 288 293 296 294 294 295 294 295 296 295 295 296 296 297 296 293 294 295 293 294 296 295 291 292 292 290 289 290 290 290 291 292 292 291 291 291 291 290 289 288 288 288 288 288 288 287 287 287 286
294 294 293 292 291 291 291 291 291 288 290 291 294 297 297 298 300 299 299 299 298 297 297 297 293 294 290 287 289 288 287 286 287 287 288 288 291 296 296 295 295 294 294 294 296 296 295 295 297 296 296 296 295 296 294 294 294 293 292 290 290 290 287 288 288 289 290 292 292 292 291 291 291 290 289 289 288 288 288 288 288 287 287 287 287
294 290 287 286 288 290 291 290 290 290 291 292 293 295 295 296 297 296 298 298 297 297 296 296 298 295 291 290 290 289 288 287 288 290 291 293 295 296 296 296 295 295 295 295 295 294 294 295 293 294 295 296 294 294 294 294 293 292 290 290 290 290 290 292 292 292 292 291 292 292 291 291 291 291 290 289 288 288 288 288 288 288 287 287 287
292 292 290 286 288 288 289 288 289 289 289 292 294 296 296 296 295 296 297 297 296 296 297 295 296 294 291 290 289 290 288 289 290 291 292 293 294 296 296 294 295 294 293 293 294 295 294 294 295 294 294 294 294 293 294 292 291 291 291 290 289 289 290 291 292 292 291 291 291 291 291 290 290 290 290 289 289 288 288 288 288 288 288 287 287
293 292 289 288 287 289 288 288 289 289 291 292 295 295 296 296 297 295 297 297 296 296 296 297 299 297 294 291 288 289 291 291 292 292 293 294 295 294 295 294 294 294 293 294 293 293 294 293 294 294 292 292 292 293 292 292 291 291 290 289 289 289 291 291 291 291 291 291 291 291 291 291 291 290 289 289 288 288 288 289 289 289 289 288 288
294 292 292 291 289 289 290 289 289 289 291 292 295 297 296 296 295 295 297 296 295 295 296 298 299 296 291 287 287 288 292 292 292 292 295 295 293 294 294 294 295 294 293 294 293 292 293 292 293 293 293 292 293 292 292 291 290 290 289 289 289 290 291 292 291 290 290 291 291 290 290 290 289 289 289 288 289 289 289 289 289 289 289 289 288
292 293 292 292 292 291 290 290 290 292 293 294 295 291 292 294 296 297 296 295 295 295 295 294 294 294 291 287 288 288 294 294 290 292 292 293 295 294 295 295 295 294 295 295 295 294 293 293 293 293 293 292 292 291 291 290 289 289 289 289 289 290 290 291 291 291 291 290 290 289 289 289 289 290 290 289 289 289 289 288 288 289 289 289 289
292 292 293 292 293 292 291 291 292 292 293 290 292 292 292 295 294 295 294 293 292 293 293 292 291 291 290 291 291 293 295 294 294 294 294 294 294 294 294 294 294 294 294 294 295 294 293 293 293 293 292 292 291 290 290 290 290 289 289 289 289 288 289 289 289 289 288 288 288 288 289 289 289 290 289 289 289 289 289 289 289 289 289 289 289
293 293 293 294 294 294 293 294 293 293 291 293 295 295 293 294 293 292 291 291 291 292 292 292 291 290 290 292 294 293 294 294 293 293 293 293 293 293 294 293 293 292 293 294 294 293 293 293 292 291 291 291 291 290 290 290 289 289 289 288 288 289 288 287 287 287 286 286 287 289 289 289 289 290 289 289 289 289 289 289 289 288 289 289 288
291 292 291 292 293 292 293 295 295 296 296 296 295 296 295 293 293 293 291 292 292 292 292 291 291 291 292 292 292 291 293 293 292 293 293 293 293 293 294 294 293 293 293 294 293 292 293 293 292 292 290 289 289 290 290 289 289 288 289 288 288 288 287 287 286 285 286 286 287 288 288 289 289 289 288 289 290 290 289 289 289 289 289 288 288
292 291 291 291 291 291 292 292 293 294 295 294 295 294 294 295 295 292 291 292 293 293 292 292 292 291 290 290 290 290 291 291 291 292 292 292 293 293 293 293 294 293 293 293 291 292 291 291 291 290 289 288 288 287 289 290 289 290 289 289 288 287 286 284 284 284 285 286 285 286 287 287 288 289 289 289 290 290 289 289 289 288 289 289 289
292 291 290 290 291 291 292 293 292 290 293 292 294 294 294 294 293 293 293 293 293 292 292 293 292 291 290 290 290 290 290 290 290 290 291 291 292 293 292 292 292 293 292 292 292 292 291 291 289 289 288 287 287 288 288 289 289 288 288 288 286 283 281 280 282 284 285 285 284 284 285 287 289 289 290 289 289 290 289 289 289 289 289 289 289
293 292 291 290 289 289 289 290 290 290 290 291 291 291 291 292 292 292 293 292 292 292 292 291 290 290 289 289 289 289 289 289 290 291 291 291 291 292 292 292 291 292 292 291 290 290 289 289 288 288 288 288 287 287 287 286 287 287 286 286 283 279 279 279 280 283 281 282 284 286 287 288 289 290 290 290 290 290 290 290 289 289 289 289 289
293 292 291 290 290 289 289 290 290 289 289 289 289 289 289 289 289 289 289 289 289 289 289 289 288 289 289 289 289 290 290 290 290 290 290 291 292 292 292 291 291 291 291 290 290 289 289 288 288 287 287 287 286 286 287 287 286 286 285 283 280 279 279 278 279 280 281 283 283 285 286 288 289 290 291 291 290 290 289 289 289 289 289 289 289
293 292 291 290 290 289 289 289 288 288 287 287 288 288 288 288 287 288 288 287 287 288 288 289 289 289 289 290 291 291 290 291 291 292 291 291 291 291 290 290 289 288 288 288 289 288 288 289 289 288 287 286 286 287 287 287 286 283 281 279 279 279 278 278 280 280 280 280 282 285 287 289 290 290 290 291 291 290 289 289 289 289 289 289 289
Wind_Speed
6 5 5 5 7 8 8 7 8 7 8 8 7 7 7 7 7 6 6 7 8 8 8 8 8 7 8 8 8 7 7 6 5 5 5 5 5 5 5 5 6 5 5 5 4 4 4 5 5 4 2 2 3 3 3 4 3 3 3 3 3 3 3 4 5 6 4 2 1 2 2 3 2 2 3 1 0 2 2 2 1 2 3 2 6
6 6 5 6 8 8 9 8 8 7 9 8 7 8 7 7 7 7 7 7 8 8 8 7 7 8 8 8 8 8 8 7 6 5 6 6 5 4 5 5 5 6 5 5 5 3 4 5 5 4 2 3 2 4 4 3 3 4 3 2 3 3 2 2 4 4 5 4 3 2 3 1 1 2 2 2 1 2 1 0 1 2 3 5 2
4 4 5 5 6 7 7 8 8 8 9 7 7 7 7 8 7 7 7 7 7 7 8 8 8 8 8 7 7 7 7 7 6 6 6 7 6 5 4 4 5 5 5 5 6 5 5 4 5 4 3 3 1 2 2 1 1 4 3 2 3 2 2 2 1 4 4 4 3 3 2 2 2 1 1 1 2 3 3 2 2 1 1 3 4
2 3 4 4 5 5 6 6 7 7 7 6 7 7 7 7 7 7 7 7 7 6 7 8 8 8 8 8 8 7 7 7 6 6 6 6 6 7 6 5 4 4 4 5 5 5 5 4 4 4 4 3 3 2 2 2 0 3 3 3 2 2 2 1 2 1 3 4 2 0 3 1 3 1 1 2 3 2 2 2 2 2 2 4 4
3 3 4 4 5 5 6 6 5 5 5 6 6 6 7 7 7 7 6 7 7 7 6 7 7 7 7 8 8 8 8 8 7 6 6 5 5 5 5 5 4 4 3 3 3 3 4 4 4 4 4 4 3 3 2 1 1 2 1 2 2 2 1 1 1 0 1 2 3 2 1 2 1 1 2 4 3 2 1 3 2 3 3 3 5
4 4 4 4 4 4 4 4 4 5 6 6 6 7 6 7 7 6 7 7 7 7 7 6 7 8 8 8 8 8 9 8 8 8 7 6 5 5 4 4 4 4 4 4 5 4 4 4 5 5 5 4 4 3 2 2 1 1 0 1 2 2 1 1 0 1 1 1 1 3 2 1 1 1 2 3 4 4 4 5 5 2 4 5 5
4 3 3 3 3 4 4 5 5 5 6 7 6 6 6 6 7 8 7 7 7 7 7 7 6 5 6 6 7 8 8 8 7 8 8 8 7 6 6 5 5 5 5 5 5 5 5 5 5 6 5 5 4 5 5 4 1 1 1 1 2 0 2 1 1 1 1 1 1 1 1 3 1 3 1 2 3 3 4 6 6 5 5 5 7
4 4 3 3 2 2 2 3 5 6 6 7 7 6 6 6 6 6 7 7 7 7 7 6 5 5 5 6 6 6 6 6 7 7 6 6 6 6 6 5 5 5 5 5 5 5 6 6 6 6 7 6 6 5 5 5 4 4 2 2 3 3 2 1 2 3 2 2 3 2 1 2 2 1 2 2 4 4 5 6 7 8 7 7 7
3 4 4 4 3 2 2 3 3 4 5 6 6 6 5 5 6 6 6 6 5 6 7 7 7 7 7 6 6 5 5 5 5 5 5 5 5 5 5 5 4 4 5 6 6 6 7 7 7 8 8 6 6 5 5 3 5 5 5 5 5 4 3 3 3 3 3 4 4 3 4 5 5 3 4 4 5 6 6 6 7 7 8 8 8
5 4 3 4 3 2 2 2 2 3 4 5 5 5 4 5 5 6 6 6 5 6 6 7 7 8 8 7 7 6 5 4 6 5 2 3 5 4 4 4 4 4 5 6 6 7 7 6 6 6 6 9 9 8 7 6 4 4 2 7 6 5 4 3 3 3 4 5 4 4 5 5 4 3 4 3 4 4 6 6 8 8 8 8 7
5 4 4 3 3 2 2 1 1 2 2 3 4 5 5 4 4 5 5 5 6 6 6 7 7 7 8 8 8 7 6 5 10 8 7 2 3 5 4 4 4 5 6 6 7 7 7 7 6 7 7 7 8 10 9 10 8 6 8 9 8 2 3 4 4 2 4 3 2 3 3 4 3 3 4 3 4 5 6 7 8 8 8 9 9
5 5 4 3 2 2 1 2 2 1 2 3 3 3 2 3 4 4 4 5 5 5 5 6 6 6 7 7 7 7 6 11 14 11 9 8 5 4 4 4 4 5 6 7 6 6 6 6 5 4 5 7 8 9 8 7 4 2 6 8 7 8 7 5 3 1 1 3 3 3 3 4 4 5 4 4 6 7 7 8 7 7 8 9 9
6 6 5 5 4 2 1 1 1 1 2 2 2 2 3 3 3 4 4 4 4 6 6 6 6 7 7 8 8 7 5 10 11 11 10 10 8 6 5 5 6 5 5 6 6 5 4 4 5 4 4 8 6 7 8 8 7 7 9 9 9 8 9 9 10 6 2 2 2 3 3 3 5 4 4 4 5 7 8 7 7 8 8 9 9
6 6 5 5 5 3 2 1 0 1 1 2 3 4 4 4 4 4 4 5 6 5 5 7 7 7 7 8 8 8 7 10 10 10 11 11 10 7 5 5 6 5 5 5 4 5 4 4 4 5 5 6 6 7 6 9 8 8 8 7 6 7 7 7 6 6 4 3 3 4 2 3 4 4 3 3 5 7 7 8 8 9 10 10 11
5 5 5 5 5 5 5 4 3 1 1 3 4 5 5 5 5 5 6 7 7 7 6 6 6 8 10 9 9 9 6 11 10 10 9 8 8 6 5 6 4 6 5 4 3 3 3 2 3 4 4 4 4 4 7 8 9 8 9 8 7 6 5 3 3 1 2 1 1 2 2 2 2 3 3 3 4 5 6 8 10 10 11 11 12
5 6 5 5 5 5 5 5 5 3 2 2 3 5 5 6 6 7 6 7 7 7 8 8 8 8 9 8 8 9 4 9 8 8 9 9 9 6 5 4 7 6 4 3 3 3 3 3 3 3 3 4 10 5 4 8 9 10 9 7 7 6 6 6 5 7 6 5 4 4 4 6 6 5 5 5 6 6 7 8 9 10 10 9 10
7 6 6 6 6 5 5 5 4 4 4 3 3 4 4 4 5 5 7 7 8 8 8 7 7 7 8 7 7 7 5 7 7 7 9 10 8 6 7 8 6 5 4 4 4 4 2 0 1 2 4 5 7 7 6 9 9 10 9 8 6 5 6 4 5 6 6 7 7 6 5 4 1 1 2 3 5 6 7 8 8 7 9 10 10
7 7 7 7 7 6 6 5 5 5 4 4 4 4 4 4 4 5 6 7 7 7 6 6 5 5 6 7 7 6 4 6 6 6 8 11 11 7 7 6 6 5 5 4 4 5 6 9 8 3 5 6 9 9 9 9 8 9 8 8 7 6 5 4 4 3 3 2 3 3 5 6 7 7 7 7 8 7 6 8 8 8 9 9 10
7 7 7 7 7 7 7 7 6 6 6 5 4 5 5 6 5 5 6 7 6 5 4 3 4 5 6 5 3 4 6 6 5 7 8 11 9 6 7 6 6 6 5 5 5 5 5 7 11 8 7 9 9 9 6 6 7 7 7 7 6 5 5 5 4 4 5 5 6 7 7 8 8 8 9 14 12 11 8 9 8 8 9 9 10
8 7 7 7 7 6 6 6 6 7 7 6 5 4 4 4 5 6 6 7 7 7 7 8 9 7 7 7 5 4 6 6 7 8 8 9 10 5 6 5 6 6 5 6 6 6 6 6 7 10 10 8 8 7 5 7 3 6 5 5 5 5 5 4 2 2 1 3 4 4 6 5 6 6 5 7 10 10 9 7 7 7 8 9 9
8 8 8 7 7 7 7 6 6 7 7 7 6 6 5 5 5 6 7 6 6 8 10 9 8 8 7 7 6 4 3 5 6 7 9 9 9 6 6 5 5 5 6 6 5 6 6 6 6 7 8 9 9 9 10 10 7 4 2 4 5 7 3 4 4 3 4 4 5 6 5 5 5 5 5 5 6 5 6 6 6 8 9 11 11
9 10 10 9 9 8 7 7 6 6 6 7 7 7 6 6 5 6 7 6 8 8 8 8 8 8 7 7 7 6 4 5 5 5 5 6 7 7 5 5 3 6 5 6 6 6 6 6 6 6 9 11 11 11 12 11 11 7 8 10 8 5 0 1 1 3 3 4 4 5 5 5 5 5 5 6 6 5 5 6 7 10 10 11 12
10 10 10 10 10 10 9 9 7 6 6 6 7 8 7 7 6 6 6 7 9 9 9 9 9 9 7 6 6 6 6 4 5 3 5 3 3 4 7 2 4 4 6 7 7 7 7 8 8 8 10 11 12 12 12 12 10 9 10 9 8 2 4 2 1 3 3 3 4 5 5 5 5 5 5 5 5 5 6 8 10 11 11 11 12
10 10 10 10 10 10 10 10 9 8 8 7 7 8 8 8 8 8 8 9 9 10 9 9 9 9 9 6 5 5 5 5 3 2 6 4 3 1 2 4 0 3 6 6 7 8 9 9 10 11 12 11 11 10 10 10 9 10 8 7 5 5 3 1 3 1 3 4 4 4 4 5 5 5 5 5 6 8 9 9 9 10 10 10 11
10 11 11 11 11 10 10 10 10 9 9 8 8 8 10 9 9 10 10 10 11 11 11 11 11 10 9 8 7 7 6 6 4 2 4 7 5 5 5 5 5 3 6 7 7 7 13 17 15 13 13 13 14 14 12 11 10 8 6 7 6 4 1 1 1 2 3 3 4 4 5 4 4 4 6 8 9 9 9 8 8 9 10 10 11
11 11 11 11 12 12 12 12 12 11 11 10 9 8 9 9 9 10 11 12 12 12 12 12 12 11 10 9 9 9 9 8 7 6 5 6 6 7 7 8 11 14 14 12 17 19 17 15 15 15 14 12 9 7 7 7 7 8 6 7 5 1 1 1 1 2 3 3 4 5 5 5 5 5 7 7 8 8 8 8 9 9 9 10 10
11 11 12 12 12 13 13 12 11 11 11 11 10 10 9 10 10 10 11 11 13 13 12 11 12 12 11 10 9 8 8 8 9 9 9 8 8 8 9 9 13 14 11 11 13 12 13 11 8 8 9 10 11 11 10 9 7 7 6 4 1 1 1 1 2 3 2 3 4 5 5 6 6 8 8 8 8 8 8 9 9 9 9 10 10
12 12 12 11 11 11 12 12 12 11 11 10 10 11 11 10 11 11 12 12 13 13 13 13 13 12 11 9 8 8 8 8 8 9 10 9 9 9 9 10 9 9 10 10 11 11 10 10 10 8 8 7 7 6 6 5 4 3 2 2 2 3 1 2 3 3 2 3 5 5 5 6 7 8 8 8 8 8 8 9 9 10 10 10 10
13 15 14 13 11 11 11 12 12 11 11 12 12 13 12 11 10 10 8 8 10 10 9 4 3 0 1 4 4 5 5 7 7 6 8 10 9 11 10 10 10 9 11 15 12 10 10 9 6 7 6 4 3 3 4 4 2 2 2 1 2 2 1 1 2 3 3 5 5 5 4 7 8 8 8 8 8 9 9 9 9 9 10 9 10
14 14 13 12 13 12 10 10 12 12 12 12 12 10 7 6 5 4 7 3 8 8 2 7 7 3 2 2 1 2 3 1 8 11 10 9 7 10 9 10 11 12 16 15 12 9 7 6 5 4 4 3 3 3 3 2 2 2 2 1 2 1 2 2 2 3 4 4 4 4 5 6 7 8 8 8 9 9 9 9 9 9 9 9 9
12 13 13 12 12 12 13 12 10 11 12 12 12 13 9 3 4 4 7 7 5 3 2 5 4 2 5 6 6 3 2 7 11 11 11 10 11 13 15 16 19 19 16 10 7 6 6 5 5 4 4 3 3 2 2 2 2 2 2 1 1 1 0 1 2 3 3 3 4 5 6 6 7 7 7 8 9 9 9 8 9 9 9 10 10
12 12 12 13 12 11 12 12 13 12 12 12 13 12 13 10 5 5 6 5 3 3 2 1 1 1 5 7 4 3 4 10 13 12 12 12 13 14 16 18 18 18 14 10 6 6 5 5 5 4 3 3 2 2 2 2 2 1 1 1 0 1 1 1 3 4 3 3 4 5 5 6 7 7 7 7 7 8 9 8 8 8 9 10 10
13 13 13 13 13 13 12 12 12 12 12 13 13 13 13 13 11 6 4 7 6 4 7 7 6 2 2 6 12 11 11 12 14 14 14 14 14 14 16 17 16 13 9 5 5 5 5 4 4 3 4 3 3 2 2 3 2 1 0 0 0 0 1 2 2 3 2 3 5 5 6 7 7 6 6 6 7 8 8 9 9 9 9 9 9
14 13 12 12 12 12 13 12 12 11 12 12 12 13 13 12 11 9 8 5 4 7 9 9 9 8 7 2 4 8 13 16 16 16 15 15 15 16 15 11 11 7 2 4 4 5 4 4 5 5 5 3 3 3 2 2 2 1 0 0 1 2 2 3 3 2 3 4 5 6 6 6 6 7 7 7 7 8 9 8 9 9 9 8 9
13 14 16 13 12 13 12 12 11 10 11 11 12 13 13 12 11 11 9 9 9 8 5 5 6 9 5 4 6 11 14 16 16 17 17 17 17 17 16 10 8 5 4 6 6 6 5 4 4 5 5 4 3 3 2 3 2 1 0 0 1 2 2 2 2 2 3 4 5 6 6 6 6 6 7 8 8 9 9 9 8 9 9 10 10
13 13 13 14 12 13 13 12 11 11 11 11 12 12 12 11 11 10 9 9 9 9 6 5 4 7 15 8 8 11 11 11 14 17 18 19 19 18 11 9 9 7 5 6 6 6 6 5 5 5 5 5 4 3 2 2 2 1 1 1 0 2 2 2 3 3 4 5 5 5 6 6 6 7 7 8 8 9 9 9 9 9 9 10 9
11 12 11 12 12 11 11 12 11 10 10 10 12 11 11 11 11 9 9 9 8 8 7 7 7 6 11 7 8 11 10 10 12 14 16 18 16 9 7 9 7 7 6 5 7 6 6 6 5 5 5 4 4 4 2 2 2 1 0 1 2 1 1 2 2 3 3 4 5 6 6 7 7 7 8 8 9 9 9 9 9 10 9 10 11
12 11 10 9 9 8 9 10 9 8 9 10 11 11 10 11 9 9 7 4 5 6 6 7 7 6 8 9 11 9 10 8 11 12 11 11 7 6 6 6 7 6 5 6 7 7 4 4 5 5 5 5 4 4 2 1 0 0 0 1 1 1 2 4 4 6 5 5 5 6 6 7 7 7 7 8 9 9 10 9 10 10 10 10 9
10 8 6 9 8 7 8 7 6 6 7 9 9 10 10 9 9 8 8 5 5 5 6 6 6 5 7 9 9 11 16 9 7 9 10 9 8 6 6 6 6 6 7 7 7 5 4 4 4 3 4 4 3 3 2 1 0 0 1 1 1 1 1 2 2 2 3 4 5 6 6 7 8 8 8 8 9 9 9 9 10 10 10 9 9
8 8 6 3 4 4 5 3 3 5 6 8 9 10 8 6 6 6 7 5 5 5 5 6 5 5 6 9 10 8 6 9 9 9 10 10 8 6 7 6 6 6 6 5 4 5 4 4 4 3 3 3 3 2 2 0 0 0 0 1 2 1 2 2 2 3 4 5 6 6 7 8 8 8 8 8 8 9 9 10 10 10 10 10 10
7 6 5 4 4 3 3 4 4 6 7 7 7 7 7 4 5 4 5 5 5 5 4 7 7 7 8 10 14 14 9 7 6 7 9 8 7 7 7 7 6 6 5 5 4 4 4 4 4 3 3 3 2 2 1 1 0 1 2 1 1 2 2 1 1 3 4 5 6 6 7 8 9 8 8 8 9 10 9 9 9 9 9 9 10
8 6 5 4 0 2 2 3 4 5 7 4 4 2 3 4 3 3 3 4 5 7 5 6 8 6 11 17 13 10 9 7 6 5 7 8 8 7 7 8 8 6 5 5 4 4 4 4 3 3 3 3 2 2 1 1 1 2 1 2 2 2 2 2 2 2 4 5 6 7 7 8 8 9 9 9 9 9 9 9 9 9 9 10 9
7 6 4 3 3 1 0 1 3 4 3 2 2 5 6 3 3 4 3 5 7 6 6 6 6 8 10 10 8 9 10 11 11 10 7 6 6 7 7 7 6 5 6 5 4 4 4 3 3 3 3 3 2 2 1 2 2 2 2 2 2 2 2 2 3 3 4 4 5 6 7 8 8 8 8 8 9 9 9 10 9 9 9 9 9
6 6 5 3 3 4 3 3 2 2 5 3 4 5 4 5 4 3 4 6 5 6 6 7 7 9 8 7 7 7 9 10 11 10 10 7 7 7 7 6 6 6 5 4 4 4 3 3 3 4 3 3 3 2 2 3 2 2 2 2 2 2 2 3 3 3 4 5 5 6 8 8 8 8 8 8 8 9 10 10 10 9 9 9 9
8 7 7 5 4 4 6 5 5 5 3 3 5 7 6 6 4 5 4 3 5 6 6 7 8 9 9 8 6 6 8 9 7 9 8 8 7 7 7 7 6 5 5 4 4 4 3 4 4 3 3 3 2 2 2 3 2 2 2 2 2 2 3 3 3 3 4 5 5 7 8 8 8 8 8 8 9 9 10 10 10 10 10 9 9
8 8 7 7 7 8 7 6 5 5 4 4 5 4 8 7 7 5 4 5 7 7 7 7 8 8 7 7 6 7 8 8 7 7 8 6 7 7 7 6 6 5 5 5 4 4 4 3 3 3 3 3 2 2 2 1 1 1 1 1 2 2 2 2 3 4 4 4 6 6 7 8 8 7 9 9 9 9 10 10 10 9 9 10 9
9 8 8 8 7 7 7 8 8 7 7 6 6 7 6 7 7 5 6 8 8 8 8 7 8 8 7 6 7 5 6 6 6 5 5 5 6 7 7 6 6 6 6 5 5 5 5 4 4 4 3 3 3 2 1 1 0 1 1 1 2 2 2 4 5 5 5 5 6 6 7 7 7 8 9 9 10 10 10 10 10 10 9 9 9
9 9 9 9 8 8 8 8 8 8 8 7 7 7 7 6 7 6 6 7 8 8 8 9 9 9 9 7 7 6 6 5 5 6 5 5 6 7 7 6 6 6 6 5 5 4 4 4 3 3 3 3 2 2 1 1 1 1 1 1 3 5 6 7 5 5 5 6 7 7 7 7 7 8 9 9 9 9 10 10 10 9 9 9 8
9 9 9 9 9 9 9 9 9 9 8 8 8 8 8 7 7 8 8 8 9 9 9 9 9 8 8 7 7 7 7 7 5 5 5 6 6 6 6 6 5 5 5 5 5 5 4 3 3 3 3 3 2 1 1 1 1 1 2 2 5 8 8 8 7 6 8 8 7 7 7 8 8 8 9 9 9 9 9 9 9 9 9 8 8
9 9 9 9 9 9 9 9 9 9 9 9 9 9 9 9 9 10 9 9 9 9 9 8 8 8 7 7 7 7 7 6 5 5 5 5 6 6 6 6 5 5 5 5 4 4 3 3 3 3 3 3 2 1 1 1 1 2 2 4 8 9 9 11 9 8 7 6 7 7 7 7 7 8 8 9 9 9 9 9 9 8 8 9 8
8 8 8 8 8 9 9 9 9 9 9 8 8 8 9 9 9 9 8 7 8 8 8 8 8 7 7 7 7 7 7 7 7 7 6 6 6 6 6 6 6 5 5 5 4 3 3 2 2 3 2 2 1 1 1 1 2 4 6 7 7 9 11 11 8 9 11 10 8 7 7 7 7 8 8 8 9 9 8 9 8 8 8 8 8
Wind_Direction
177 172 161 162 165 167 168 169 161 163 168 173 172 166 159 162 157 158 160 158 155 157 154 153 150 148 143 143 138 136 134 132 130 130 125 126 118 119 137 134 130 123 120 124 127 136 125 117 118 111 101 98 113 126 105 101 95 79 82 93 88 72 71 103 113 119 125 119 129 92 67 266 104 13 66 76 344 160 199 42 351 346 1 305 130
176 178 171 170 176 180 180 174 177 173 173 181 179 170 162 169 160 166 170 165 164 161 158 155 155 156 153 149 148 144 145 139 142 137 130 130 130 140 148 150 137 131 145 136 126 121 135 134 128 125 127 120 158 153 142 155 145 138 117 92 99 85 25 81 107 118 130 159 149 145 133 297 197 99 66 360 22 312 307 174 194 326 15 337 312
164 178 185 188 188 194 192 182 174 173 179 178 182 183 167 169 169 174 174 169 170 166 159 163 162 159 157 157 155 152 150 145 147 148 143 150 149 151 157 148 146 148 156 151 152 141 149 145 142 141 148 148 161 71 95 163 120 85 77 71 73 68 62 40 116 116 138 128 162 167 125 94 331 43 37 121 345 318 313 358 313 332 353 335 321
184 179 174 181 190 195 193 185 183 181 180 183 185 188 181 171 177 186 177 170 171 171 163 169 165 165 162 160 158 158 152 150 158 160 158 157 159 156 161 159 162 168 164 165 151 160 157 156 149 154 160 156 166 146 172 122 215 105 128 119 110 76 55 5 344 73 131 144 157 273 114 187 185 191 345 235 209 255 299 306 296 281 328 336 321
153 177 167 166 173 184 189 182 182 189 201 202 201 195 191 185 178 188 182 175 171 170 171 170 171 175 170 169 162 162 161 162 162 164 155 166 162 154 166 164 167 175 171 163 157 179 161 181 160 164 169 164 163 190 138 197 191 144 165 139 134 106 128 19 25 292 180 128 139 100 180 179 63 314 349 336 326 295 285 326 313 296 297 315 313
142 148 159 168 164 181 190 196 187 192 203 211 206 205 198 196 184 190 190 182 174 178 179 175 181 181 180 177 166 165 167 166 168 168 162 162 167 164 172 169 183 186 179 197 186 189 195 191 176 180 183 180 174 144 143 169 127 226 136 313 96 116 82 112 166 348 310 91 154 161 162 354 258 227 309 336 327 324 331 336 328 308 324 323 322
117 131 131 152 167 175 190 202 206 209 213 220 222 222 216 209 201 195 192 191 181 185 188 184 184 199 187 175 173 173 170 171 166 163 165 167 168 170 173 183 189 196 201 204 202 201 205 204 194 190 195 192 174 172 160 162 159 208 53 340 287 126 223 211 215 183 283 250 178 338 223 155 275 315 57 339 284 301 340 338 328 336 331 329 318
113 114 127 129 146 149 171 202 215 216 221 219 220 224 223 216 213 199 189 197 192 192 187 186 171 187 182 190 184 176 170 176 173 170 176 166 168 173 176 185 198 193 204 214 212 213 212 213 209 201 199 197 198 178 181 170 192 138 171 238 263 240 242 205 249 242 224 269 311 307 306 311 229 208 322 313 339 337 2 338 324 327 327 325 313
64 101 114 112 104 122 152 200 215 209 207 212 212 212 213 214 208 199 189 197 204 196 184 180 176 184 182 188 182 177 187 182 178 181 180 177 184 186 196 200 214 227 227 224 220 222 222 217 216 211 199 189 180 185 189 170 195 175 195 204 210 223 239 257 242 247 255 292 289 282 297 297 304 335 334 344 345 340 332 324 314 317 321 314 317
68 65 71 78 88 111 135 165 209 204 212 212 209 210 215 204 201 202 202 198 186 197 187 182 185 185 183 181 187 187 193 194 111 88 18 196 192 202 186 206 223 239 245 247 233 226 227 223 217 213 167 163 165 176 164 182 224 257 227 193 200 210 227 253 273 281 305 288 296 323 308 312 338 349 327 338 338 322 321 322 315 320 312 312 307
65 53 57 57 72 111 127 121 217 213 229 235 227 225 216 207 207 211 207 204 196 189 193 191 194 188 187 190 187 192 192 159 135 159 167 265 236 200 210 211 212 233 240 235 238 231 221 219 213 173 184 176 179 183 183 186 195 225 340 23 25 360 226 222 242 282 288 288 332 320 327 321 311 325 314 338 334 332 323 317 311 312 316 319 316
55 53 49 49 45 49 79 143 194 212 234 240 244 241 232 220 215 208 199 185 188 190 204 211 203 200 201 198 191 192 195 147 168 168 179 181 222 224 210 216 218 230 237 234 233 233 229 217 208 183 206 207 208 183 190 185 188 137 76 70 65 57 44 20 330 255 304 315 323 319 311 302 328 320 326 340 336 323 314 309 305 310 312 307 305
61 63 62 61 61 51 2 314 301 246 244 244 233 243 231 224 226 213 193 191 180 199 203 198 206 211 209 212 212 206 222 150 162 161 166 185 201 230 216 213 230 231 239 238 242 242 229 215 202 204 195 149 221 205 187 163 121 109 112 101 75 64 57 44 30 18 4 317 287 286 287 335 315 328 25 341 329 303 306 303 312 309 303 296 293
57 53 49 50 51 57 71 64 275 235 250 268 254 239 226 223 205 209 196 187 196 201 223 218 214 212 215 228 230 230 241 153 165 163 176 184 183 199 229 214 215 220 215 216 212 219 218 220 213 198 181 177 209 214 186 159 160 154 159 167 140 109 94 88 88 59 11 317 303 298 13 345 315 339 5 335 310 306 308 304 308 302 296 292 297
49 44 43 36 37 32 33 37 34 25 248 227 239 241 237 231 211 200 192 186 192 214 229 224 221 233 235 236 238 235 225 144 162 172 175 171 169 200 217 209 169 228 213 203 217 215 215 222 238 239 203 207 201 198 169 166 164 166 170 169 162 161 139 125 80 77 134 232 314 350 350 345 332 336 311 304 295 295 297 296 294 289 286 283 276
40 30 22 21 15 20 18 26 22 11 323 265 250 247 235 225 211 205 199 201 221 223 225 229 229 230 229 224 227 226 133 131 152 176 168 169 164 198 202 191 203 197 167 165 191 185 194 208 217 214 203 199 102 142 186 163 166 165 162 153 145 121 82 61 37 34 33 34 34 26 37 44 25 11 3 330 302 292 287 281 274 268 270 280 289
22 20 12 7 358 354 359 355 4 359 1 325 284 273 253 234 212 205 199 210 222 222 223 222 224 222 217 214 214 217 172 136 151 167 173 165 179 200 190 203 191 180 165 154 149 121 109 87 207 171 166 112 123 147 152 179 161 159 157 159 152 141 127 120 81 63 58 66 66 68 60 66 68 172 255 286 285 304 295 285 278 293 297 293 292
8 4 357 352 342 341 336 332 330 331 319 322 312 275 267 255 221 205 209 212 216 210 205 202 206 211 203 206 203 201 180 126 160 170 180 182 208 210 203 203 174 167 154 140 117 99 64 25 348 132 129 125 140 143 162 188 165 164 164 158 157 154 142 142 146 115 119 148 164 175 186 188 203 219 227 220 224 249 272 285 301 300 288 288 291
351 350 344 339 333 332 329 325 320 318 315 318 319 300 272 253 234 206 208 205 199 188 182 167 200 198 186 176 40 237 140 128 167 175 190 198 228 237 213 193 177 180 160 140 126 112 102 62 28 40 85 116 133 139 169 219 162 168 164 169 174 173 145 156 162 171 182 197 192 194 207 202 216 222 212 199 206 212 249 266 284 286 289 292 294
331 328 326 325 321 317 317 317 313 308 308 312 309 294 277 253 226 217 204 198 182 176 177 186 182 164 148 147 159 173 137 138 143 164 186 200 236 280 228 204 189 176 179 154 141 121 111 101 69 61 87 97 99 94 67 342 187 157 170 189 179 142 136 151 63 340 220 258 283 272 284 272 262 256 267 194 201 216 239 262 278 288 292 292 293
320 320 316 311 310 314 317 314 316 309 295 294 297 290 274 257 231 217 209 201 180 176 177 175 158 150 152 152 148 134 109 138 128 157 179 199 214 253 222 220 192 184 172 158 153 141 128 104 100 70 85 89 92 82 69 45 37 127 110 86 68 79 111 154 132 240 258 268 268 267 265 264 255 260 256 259 264 268 267 268 274 280 287 289 290
317 314 311 310 311 307 305 307 309 299 294 286 281 275 260 253 252 228 217 193 180 175 171 168 161 155 154 154 145 140 90 17 136 142 178 196 214 245 281 198 200 179 169 164 153 139 125 122 119 104 100 96 89 85 78 72 63 81 76 85 72 57 324 88 206 221 262 261 279 287 286 282 287 288 291 289 288 283 289 290 284 288 287 285 285
302 301 302 302 301 299 296 292 289 287 285 282 275 270 264 245 240 237 214 191 187 179 176 170 167 163 158 156 151 145 139 117 19 134 148 189 222 251 325 351 56 197 179 164 146 130 125 116 106 109 104 100 95 93 93 93 86 90 98 90 91 96 259 217 1 281 275 290 291 290 289 291 294 299 298 303 309 318 312 299 295 293 291 285 287
290 287 285 284 284 284 284 283 278 274 274 274 267 260 254 247 238 229 224 213 206 203 196 183 178 168 163 157 152 145 142 130 87 57 141 154 149 2 38 85 110 244 177 159 139 130 133 130 124 121 105 100 94 85 79 81 101 116 111 122 157 228 251 187 228 254 279 268 277 285 299 310 302 292 310 319 315 316 305 301 295 291 287 287 286
283 278 274 272 271 272 272 272 273 270 266 263 262 255 248 236 233 226 222 221 214 201 199 193 192 185 173 164 165 161 155 139 139 89 110 126 118 117 106 93 38 358 143 137 130 109 97 106 118 117 111 105 104 101 96 102 114 121 146 178 214 217 179 295 324 294 284 289 293 308 300 299 303 306 302 311 311 301 290 287 289 291 289 286 283
289 282 278 272 269 266 265 264 263 260 259 257 256 256 255 240 230 225 220 219 220 216 209 201 201 196 181 176 173 164 158 155 146 143 142 125 116 112 113 94 75 59 64 83 89 101 108 112 113 118 124 135 144 130 121 124 141 159 186 221 227 122 307 290 281 286 300 314 312 300 303 298 292 298 311 294 288 295 301 299 297 294 293 292 294
291 288 283 279 271 265 261 260 257 254 251 248 245 244 241 242 237 228 224 223 221 220 212 208 209 203 195 184 169 153 161 160 155 156 162 155 151 142 129 113 108 105 103 110 108 107 120 127 122 103 88 71 75 91 117 142 161 184 189 198 112 108 113 34 345 311 312 312 312 307 307 307 299 289 301 300 297 294 295 295 294 294 296 296 295
289 288 290 290 287 281 272 258 255 258 255 251 249 243 238 238 236 230 226 220 219 217 214 212 215 215 200 184 169 172 164 166 165 168 167 160 155 158 150 148 155 150 135 134 131 129 128 113 121 132 135 139 146 161 165 175 165 158 145 131 134 96 104 142 242 250 277 316 308 306 306 304 303 316 316 308 303 301 303 300 297 295 295 297 294
288 286 287 281 277 277 274 272 263 255 250 248 244 244 241 231 229 234 235 228 223 212 203 192 213 34 183 161 164 172 170 178 190 178 163 158 158 158 159 161 156 153 133 127 129 137 143 153 151 152 162 164 170 170 157 158 138 121 132 201 169 183 199 297 320 338 341 322 318 319 309 314 317 317 309 306 306 309 307 304 301 297 297 294 290
283 281 281 280 278 272 271 272 264 257 253 251 251 237 44 21 352 292 231 48 35 14 264 195 190 181 111 60 62 279 257 230 109 121 125 135 139 137 137 132 120 117 122 136 142 145 156 156 159 164 161 170 176 167 164 155 157 157 130 101 238 64 359 315 324 348 339 311 307 300 309 318 311 311 309 306 306 304 307 305 298 297 293 292 292
279 278 278 275 277 283 278 271 275 275 259 248 244 244 227 147 66 360 322 326 328 70 27 4 42 19 155 174 190 191 1 110 131 132 127 120 114 110 109 108 115 126 137 142 151 153 158 164 164 165 171 172 171 154 145 158 163 167 150 161 164 157 224 304 359 328 313 313 306 314 325 321 313 309 307 306 305 304 304 302 299 299 297 297 294
278 274 271 271 273 270 269 272 266 260 266 261 247 241 240 224 166 88 36 346 245 182 137 140 359 308 276 266 250 143 134 152 147 141 135 127 124 122 121 125 132 140 155 164 156 163 168 168 167 165 166 165 147 138 157 149 140 154 165 185 137 52 334 334 357 312 313 317 323 324 316 312 310 309 308 306 305 302 305 307 305 301 299 296 294
276 273 270 270 267 263 264 265 268 266 262 258 250 243 240 236 223 183 117 72 50 103 119 111 110 85 246 246 244 218 172 161 152 144 139 133 128 129 129 133 137 142 150 175 166 165 164 164 159 154 162 154 145 157 151 146 145 140 116 46 348 15 334 7 275 286 314 312 310 313 316 316 315 315 310 307 306 305 307 305 304 304 301 299 296
274 270 267 264 261 262 260 260 264 263 258 256 251 241 238 235 233 215 164 147 115 82 71 80 98 95 72 44 223 163 148 153 151 143 136 131 126 125 125 127 127 141 224 175 165 159 158 159 155 160 156 146 147 142 152 145 138 134 130 112 332 348 352 330 323 332 320 313 317 321 321 324 323 316 313 311 308 307 305 306 307 304 301 299 299
272 267 260 256 259 259 257 257 257 262 269 264 252 242 236 234 229 224 205 176 173 168 158 108 76 86 92 85 113 139 151 150 145 138 134 131 129 126 119 125 138 159 206 181 161 159 152 152 154 150 147 149 150 149 146 148 139 140 156 46 335 355 336 336 329 330 321 317 320 325 333 324 319 319 316 313 311 308 305 304 302 300 299 299 299
269 266 264 256 248 249 248 249 251 253 257 263 263 252 237 231 226 224 214 198 190 182 153 123 109 108 96 72 115 135 137 137 140 138 138 138 139 141 143 153 153 164 172 165 160 148 152 151 148 149 147 148 146 148 144 143 159 170 37 5 348 339 337 339 338 343 333 317 328 337 334 324 326 321 316 310 305 304 304 304 299 297 295 294 295
278 275 266 257 251 246 245 242 242 247 253 262 267 257 240 230 230 225 217 210 186 174 146 135 130 106 89 84 77 78 90 121 132 134 137 142 153 161 155 154 157 158 166 158 151 148 145 142 145 141 139 143 148 145 141 142 122 100 111 313 354 320 354 346 346 348 310 325 338 341 331 328 329 325 320 314 311 307 303 303 301 296 293 291 292
296 305 310 284 247 236 235 236 236 240 250 252 255 257 240 227 223 219 210 188 144 140 144 149 158 154 128 125 138 131 99 87 107 117 133 150 176 182 157 157 155 157 155 146 147 149 141 139 141 142 137 141 140 137 130 127 110 51 24 345 315 354 259 269 219 229 274 326 342 341 333 333 331 327 322 316 311 307 305 304 301 298 296 293 294
308 315 303 291 264 239 233 227 236 252 253 244 241 246 240 224 221 221 210 190 157 145 137 138 161 135 122 130 132 129 123 138 168 160 161 170 179 172 156 154 153 149 143 139 142 143 138 133 128 133 137 127 130 133 126 112 77 40 1 313 330 331 305 323 353 331 336 345 341 341 336 333 330 326 322 315 311 309 309 310 307 303 298 298 297
318 320 344 332 272 241 237 224 253 263 261 255 236 225 217 214 215 213 212 193 162 153 150 145 149 139 133 135 127 135 137 156 172 160 166 171 174 159 154 148 142 138 139 141 141 134 135 134 132 126 125 127 127 110 100 91 20 18 334 358 339 328 322 329 351 349 350 347 341 341 334 329 326 321 320 317 317 315 310 308 308 306 299 297 297
340 338 329 329 324 259 210 229 241 261 263 252 239 209 206 212 215 208 203 194 158 154 156 145 135 134 145 141 147 152 149 166 159 166 164 167 157 146 141 134 135 134 132 135 135 134 129 125 126 127 132 129 128 116 92 56 11 353 19 345 332 347 325 356 345 7 348 337 342 336 332 327 325 325 321 318 311 303 304 308 312 313 309 302 299
339 352 6 21 211 253 243 214 237 255 261 247 245 253 155 172 195 199 176 168 151 151 156 153 132 132 124 135 146 129 109 96 94 138 160 137 131 136 133 130 131 132 131 124 120 120 114 115 128 129 121 118 112 97 103 78 25 7 6 359 354 348 337 350 13 7 335 344 341 338 331 328 320 311 310 312 314 315 314 316 317 314 311 309 306
342 344 10 23 27 17 325 210 246 250 220 162 65 48 38 41 79 89 112 116 114 115 110 106 106 118 128 123 136 161 148 145 141 137 140 153 140 130 129 125 123 117 111 109 109 110 117 121 122 121 111 89 72 71 59 51 29 7 8 360 353 4 341 352 357 352 346 337 333 336 327 320 319 321 321 321 321 320 316 315 316 317 316 313 313
9 356 358 24 58 95 136 154 153 106 66 67 76 75 72 78 76 88 92 105 115 117 117 113 116 124 133 139 160 167 144 149 156 154 148 144 135 131 121 116 111 107 105 104 103 104 113 124 112 95 101 107 83 51 42 46 29 17 5 350 3 9 348 5 355 354 345 337 330 323 330 326 323 319 322 323 324 320 319 323 324 325 320 317 315
22 19 11 26 47 77 99 107 113 130 151 143 96 83 79 67 72 80 82 91 115 113 108 114 119 127 133 144 141 140 130 133 133 130 134 132 127 119 112 110 113 113 111 100 95 100 103 101 103 111 114 103 95 86 64 52 28 14 16 5 355 9 11 2 346 346 334 320 318 329 328 328 327 324 325 326 322 322 324 327 325 320 319 320 319
27 32 30 27 27 20 20 48 68 74 78 70 74 76 81 81 66 61 114 133 115 111 114 117 119 116 113 107 103 115 115 113 117 123 128 131 124 125 123 118 114 116 111 108 108 98 97 109 112 110 97 81 65 58 84 86 70 60 25 48 30 21 2 358 349 329 321 316 315 315 315 314 318 325 319 320 324 323 324 324 322 324 323 320 321
26 32 34 43 45 50 42 34 35 47 55 57 69 70 72 85 102 103 78 79 96 105 108 114 117 113 108 106 103 90 92 99 101 101 97 101 108 109 111 116 116 107 105 103 105 104 92 83 85 80 66 63 78 57 18 36 45 82 61 55 65 29 20 355 335 320 313 310 303 298 306 309 312 319 322 325 325 326 327 325 328 325 325 326 324
34 35 35 36 41 44 49 52 61 58 61 59 58 67 77 83 85 86 94 91 89 95 99 101 102 98 94 86 83 85 83 84 87 96 101 100 99 101 105 111 115 113 106 102 97 91 96 91 86 87 91 80 61 63 47 10 33 27 19 57 54 28 354 336 321 312 308 309 300 291 288 298 304 316 326 326 328 330 328 330 330 331 329 326 327
38 38 40 40 44 45 49 53 57 59 62 65 67 66 68 71 78 85 89 92 96 90 83 84 80 81 82 82 81 83 85 89 92 93 95 98 101 104 102 98 101 107 109 103 98 90 88 80 72 75 71 74 68 56 69 42 5 43 20 34 33 0 341 337 319 313 312 302 290 285 278 277 290 317 323 326 332 332 331 331 332 332 329 330 329
45 43 43 41 43 46 49 53 56 60 60 63 65 69 68 71 71 73 77 78 70 65 68 69 74 78 84 85 89 92 94 93 92 96 100 107 109 108 103 98 94 95 99 101 99 98 98 100 91 78 70 67 64 49 36 57 30 25 14 9 347 338 338 331 316 312 313 309 301 292 292 290 297 313 324 329 335 336 336 337 335 333 330 329 333
54 53 52 48 45 45 48 53 52 49 52 59 64 68 68 67 67 67 60 53 59 62 67 74 79 82 84 88 93 95 94 94 98 101 102 100 101 101 101 100 96 89 88 92 98 98 85 73 77 80 79 75 55 35 32 37 45 22 348 335 333 339 337 333 325 320 314 305 292 279 276 289 306 310 322 335 337 338 336 330 336 334 333 337 342